Date String (YYYY-MM-DD hh:mm:ss) UTC,Instrument flags,Ambient pressure (hPa),Sample flow (lpm),Bypass flow (lpm),Sample temperature (°C),Ambient temperature (°C),ASC tube jacket temperature (°C),LED temperature (°C),Box temperature (°C),Sample RH (%),Span deviation,Mass concentration (μg/m³),Mass concentration (μg/m³),Mass concentration (μg/m³)
DateTimeUTC,F1_M11,P_M11,Q1_M11,Q2_M11,T1_M11,T2_M11,T3_M11,T4_M11,T5_M11,U1_M11,ZSPAN_M11,X0_M11,X2_M11,X1_M11
2023-02-24 06:00:00,,0826.4,5.02,0.00,22.5,21.3,00.0,31.3,24.0,04.4,0000.0,0008.68,0004.32,0003.92
2023-02-24 06:01:00,,0826.3,5.00,0.00,22.5,20.8,00.0,31.3,23.9,04.4,0000.0,0008.69,0004.32,0003.94
2023-02-24 06:02:00,,0826.2,5.00,0.00,22.4,20.4,00.0,31.2,23.7,04.4,0000.0,0008.68,0004.34,0003.97
2023-02-24 06:03:00,,0826.2,5.00,0.00,22.3,20.3,00.0,31.2,23.7,04.4,0000.0,0008.54,0004.34,0003.98
2023-02-24 06:04:00,,0826.2,5.01,0.00,22.3,21.1,00.0,31.2,23.9,04.4,0000.0,0008.95,0004.33,0003.98
2023-02-24 06:05:00,,0826.3,4.98,0.00,22.4,22.1,00.0,31.1,24.2,04.4,0000.0,0009.17,0004.32,0003.96
2023-02-24 06:06:00,,0826.4,5.00,0.00,22.6,23.0,00.0,31.2,24.4,04.4,0000.0,0009.22,0004.31,0003.93
2023-02-24 06:07:00,,0826.4,5.03,0.00,22.7,23.2,00.0,31.2,24.5,04.4,0000.0,0008.81,0004.27,0003.90
2023-02-24 06:08:00,,0826.4,4.99,0.00,22.6,22.5,00.0,31.2,24.4,04.3,0000.0,0008.03,0004.23,0003.88
2023-02-24 06:09:00,,0826.3,4.99,0.00,22.6,21.8,00.0,31.2,24.1,04.3,0000.0,0008.12,0004.23,0003.86
2023-02-24 06:10:00,,0826.2,5.01,0.00,22.5,21.2,00.0,31.2,23.9,04.4,0000.0,0008.09,0004.21,0003.85
2023-02-24 06:11:00,,0826.2,5.00,0.00,22.4,20.6,00.0,31.2,23.7,04.4,0000.0,0008.00,0004.21,0003.84
2023-02-24 06:12:00,,0826.2,5.00,0.00,22.3,20.3,00.0,31.2,23.6,04.4,0000.0,0007.92,0004.20,0003.83
2023-02-24 06:13:00,,0826.2,5.02,0.00,22.3,21.0,00.0,31.2,23.8,04.4,0000.0,0007.87,0004.17,0003.81
2023-02-24 06:14:00,,0826.2,4.95,0.00,22.4,22.0,00.0,31.1,24.1,04.4,0000.0,0007.89,0004.18,0003.82
2023-02-24 06:15:00,,0826.3,4.97,0.00,22.5,22.8,00.0,31.1,24.4,04.4,0000.0,0007.51,0004.16,0003.81
2023-02-24 06:16:00,,0826.3,5.03,0.00,22.6,23.2,00.0,31.2,24.5,04.3,0000.0,0007.00,0004.17,0003.82
2023-02-24 06:17:00,,0826.2,5.02,0.00,22.6,22.6,00.0,31.2,24.3,04.3,0000.0,0007.07,0004.21,0003.85
2023-02-24 06:18:00,,0826.3,4.99,0.00,22.6,21.8,00.0,31.2,24.2,04.3,0000.0,0007.24,0004.23,0003.87
2023-02-24 06:19:00,,0826.3,5.00,0.00,22.5,21.2,00.0,31.2,23.9,04.4,0000.0,0007.28,0004.27,0003.89
2023-02-24 06:20:00,,0826.4,5.00,0.00,22.4,20.6,00.0,31.2,23.7,04.4,0000.0,0007.29,0004.29,0003.90
2023-02-24 06:21:00,,0826.2,5.01,0.00,22.3,20.3,00.0,31.2,23.6,04.4,0000.0,0007.32,0004.29,0003.91
2023-02-24 06:22:00,,0826.2,5.01,0.00,22.3,21.0,00.0,31.2,23.8,04.4,0000.0,0007.36,0004.29,0003.91
2023-02-24 06:23:00,,0826.2,4.97,0.00,22.4,22.0,00.0,31.1,24.1,04.4,0000.0,0007.50,0004.30,0003.92
2023-02-24 06:24:00,,0826.2,4.96,0.00,22.5,22.8,00.0,31.1,24.3,04.3,0000.0,0007.63,0004.32,0003.93
2023-02-24 06:25:00,,0826.2,4.99,0.00,22.6,23.1,00.0,31.2,24.5,04.3,0000.0,0007.71,0004.35,0003.94
2023-02-24 06:26:00,,0826.3,4.98,0.00,22.6,22.6,00.0,31.2,24.3,04.3,0000.0,0007.73,0004.34,0003.94
2023-02-24 06:27:00,,0826.3,5.00,0.00,22.6,21.9,00.0,31.2,24.2,04.3,0000.0,0007.82,0004.34,0003.94
2023-02-24 06:28:00,,0826.2,4.99,0.00,22.5,21.2,00.0,31.2,23.9,04.4,0000.0,0007.82,0004.33,0003.95
2023-02-24 06:29:00,,0826.2,4.99,0.00,22.4,20.8,00.0,31.2,23.8,04.4,0000.0,0007.79,0004.32,0003.96
2023-02-24 06:30:00,,0826.1,5.00,0.00,22.3,20.4,00.0,31.2,23.8,04.4,0000.0,0008.37,0004.32,0003.96
2023-02-24 06:31:00,,0826.3,5.01,0.00,22.3,20.5,00.0,31.2,23.8,04.4,0000.0,0008.43,0004.31,0003.96
2023-02-24 06:32:00,,0826.2,5.03,0.00,22.4,21.5,00.0,31.1,24.0,04.4,0000.0,0008.44,0004.31,0003.97
2023-02-24 06:33:00,,0826.3,4.98,0.00,22.5,22.4,00.0,31.1,24.3,04.4,0000.0,0008.44,0004.30,0003.96
2023-02-24 06:34:00,,0826.4,5.05,0.00,22.6,23.1,00.0,31.1,24.4,04.4,0000.0,0008.39,0004.30,0003.96
2023-02-24 06:35:00,,0826.4,4.99,0.00,22.6,23.0,00.0,31.2,24.4,04.3,0000.0,0008.50,0004.29,0003.96
2023-02-24 06:36:00,,0826.4,5.03,0.00,22.6,22.3,00.0,31.2,24.3,04.3,0000.0,0008.99,0004.30,0003.96
2023-02-24 06:37:00,,0826.2,4.99,0.00,22.6,21.6,00.0,31.2,24.1,04.3,0000.0,0009.16,0004.32,0003.98
2023-02-24 06:38:00,,0826.3,4.98,0.00,22.5,21.1,00.0,31.2,23.9,04.3,0000.0,0009.43,0004.35,0003.99
2023-02-24 06:39:00,,0826.3,5.01,0.00,22.4,20.6,00.0,31.2,23.8,04.3,0000.0,0009.78,0004.36,0004.00
2023-02-24 06:40:00,,0826.4,5.00,0.00,22.3,20.5,00.0,31.2,23.8,04.3,0000.0,0009.78,0004.37,0004.01
2023-02-24 06:41:00,,0826.3,5.02,0.00,22.4,21.5,00.0,31.1,24.0,04.3,0000.0,0009.01,0004.34,0004.01
2023-02-24 06:42:00,,0826.2,5.00,0.00,22.5,22.4,00.0,31.1,24.3,04.3,0000.0,0009.10,0004.34,0004.01
2023-02-24 06:43:00,,0826.2,5.01,0.00,22.6,23.1,00.0,31.1,24.5,04.3,0000.0,0009.28,0004.35,0004.02
2023-02-24 06:44:00,,0826.2,5.02,0.00,22.7,23.1,00.0,31.2,24.5,04.3,0000.0,0009.24,0004.36,0004.05
2023-02-24 06:45:00,,0826.2,4.97,0.00,22.7,22.4,00.0,31.2,24.4,04.3,0000.0,0009.28,0004.42,0004.07
2023-02-24 06:46:00,,0826.2,4.98,0.00,22.6,21.7,00.0,31.2,24.2,04.3,0000.0,0009.32,0004.45,0004.08
2023-02-24 06:47:00,,0826.2,5.03,0.00,22.5,21.2,00.0,31.2,23.9,04.3,0000.0,0009.52,0004.44,0004.09
2023-02-24 06:48:00,,0826.2,5.00,0.00,22.4,20.7,00.0,31.2,23.8,04.3,0000.0,0009.68,0004.44,0004.09
2023-02-24 06:49:00,,0826.1,5.02,0.00,22.4,20.5,00.0,31.2,23.8,04.4,0000.0,0009.63,0004.45,0004.09
2023-02-24 06:50:00,,0826.1,5.01,0.00,22.4,21.4,00.0,31.2,24.1,04.3,0000.0,0009.21,0004.42,0004.07
2023-02-24 06:51:00,,0826.2,4.99,0.00,22.5,22.3,00.0,31.1,24.3,04.3,0000.0,0009.15,0004.40,0004.06
2023-02-24 06:52:00,,0826.2,4.97,0.00,22.6,23.0,00.0,31.2,24.5,04.3,0000.0,0009.21,0004.42,0004.05
2023-02-24 06:53:00,,0826.2,4.97,0.00,22.7,23.5,00.0,31.2,24.7,04.3,0000.0,0009.02,0004.43,0004.04
2023-02-24 06:54:00,,0826.2,5.03,0.00,22.8,23.0,00.0,31.3,24.6,04.2,0000.0,0008.90,0004.47,0004.07
2023-02-24 06:55:00,,0826.2,4.99,0.00,22.7,22.2,00.0,31.3,24.3,04.2,0000.0,0008.99,0004.52,0004.10
2023-02-24 06:56:00,,0826.2,5.03,0.00,22.6,21.5,00.0,31.3,24.1,04.2,0000.0,0008.98,0004.51,0004.12
2023-02-24 06:57:00,,0826.2,5.01,0.00,22.6,20.9,00.0,31.3,24.0,04.3,0000.0,0008.81,0004.54,0004.15
2023-02-24 06:58:00,,0826.2,5.00,0.00,22.5,20.5,00.0,31.3,23.8,04.3,0000.0,0008.15,0004.56,0004.18
2023-02-24 06:59:00,,0826.2,5.01,0.00,22.4,20.2,00.0,31.2,23.7,04.3,0000.0,0007.87,0004.58,0004.20
